Location: New Frontier Mobile Home Park
(32.8448°N, 116.9675°W)
Time: 23:06:46
(UTC+00:00)

PSLV R/B - Pass Details

Date: 14 July 2020
Orbit: 595 x 628 km, 97.9° (Epoch: 05 August)

Event Time Altitude Azimuth Distance (km) Brightness Sun altitude
Rises 11:47:24 0° 8° (N) 2,891 7.7 -12.1°
Reaches altitude 10° 11:49:35 10° 6° (N) 1,987 6.8 -11.8°
Maximum altitude 11:53:53 68° 284° (WNW) 670 3.6 -11.0°
Drops below altitude 10° 11:58:11 10° 201° (SSW) 1,990 5.7 -10.3°
Enters shadow 11:58:31 - 201° (SSW) 2,130 5.8 -10.2°
